Location: *
(49.8044°N, 4.0558°E)
Time: 02:53:05
(UTC+00:00)

SL-08 RB Rocket - Pass Details

Date: 09 April 2020
Orbit: 646 x 685 km, 97.8° (Epoch: 06 June)

Event Time Altitude Azimuth Distance (km) Brightness Sun altitude
Rises 18:56:43 0° 148° (SSE) 2,991 6.6 -5.2°
Reaches altitude 10° 18:58:58 10° 143° (SE) 2,089 5.8 -5.5°
Maximum altitude 19:03:22 48° 69° (ENE) 878 4.1 -6.2°
Drops below altitude 10° 19:07:50 10° 356° (N) 2,127 6.7 -6.9°
Sets 19:10:08 0° 351° (N) 3,052 7.6 -7.2°
